Location: Marcé
(47.5801°N, 0.3280°W)
Time: 08:13:42
(UTC+01:00)

Vanguard 1 - Pass Details

Date: 30 November 2021
Orbit: 652 x 3830 km, 34.2° (Epoch: 16 January)

Event Time Altitude Azimuth Distance (km) Brightness Sun altitude
Exits shadow 05:10:27 38° 235° (SW) 4,364 12.8 -32.4°
Maximum altitude 05:17:37 51° 191° (SSW) 3,455 12.6 -31.2°
Drops below altitude 10° 05:30:23 10° 121° (ESE) 4,467 14.1 -29.1°
Sets 05:33:18 0° 116° (ESE) 5,120 14.7 -28.6°
